66P/du Toit (2003)

Japanese version
Home page
Updated on October 15, 2003

---------------------------------------------------------------------

* Profile

* Pictures

* Orbital Elements

Epoch 2003 Aug. 29.0 TT = JDT 2452880.5
T 2003 Aug. 27.98003 TT                                 MPC
q   1.2742741            (2000.0)            P               Q
n   0.06703778     Peri.  257.24651     +0.14490732     +0.98199151
a   6.0014514      Node    22.21443     -0.73687378     +0.18886568
e   0.7876723      Incl.   18.70090     -0.66031727     +0.00473650
P  14.70
>From 31 observations 1944 May 29-2003 Mar. 11, mean residual 1".19.  Non-
   gravitational parameters A1 = +0.32 +/- 0.03, A2 = -0.0112 +/- 0.0000.

* Finding Charts

* Magnitudes Graph

        m1 = 13.0 + 5 log d + 15.0 log r  [   ,-50]  (             - 2003 July  8)
        m1 =  8.7 + 5 log d + 30   log r  [-50, 50]  (2003 July  8 - 2003 Oct. 16)
        m1 = 13.0 + 5 log d + 15.0 log r  [ 50,   ]  (2003 Oct. 16 -             )

---------------------------------------------------------------------

The orbital elements are published on M.P.E.C. 2003-E57.
The charts are made with StellaNavigator Ver.2.0 for Windows (AstroArts / ASCII).
The magnitudes graphs are made with Comet for Windows.

---------------------------------------------------------------------

Copyright(C) Seiichi Yoshida (comet@aerith.net). All rights reserved.